Time,TemperatureF,DewpointF,PressureIn,WindDirection,WindDirectionDegrees,WindSpeedMPH,WindSpeedGustMPH,Humidity,HourlyPrecipIn,Conditions,Clouds,dailyrainin,SoftwareType,DateUTC
2013-04-06 00:01:00,31.6,23.3,30.17,NNE,22,0.0,-999.0,71,0.00,,,0.00,Wunderground v.1.15,2013-04-06 04:01:00,
2013-04-06 00:02:00,31.5,23.2,30.17,NNE,22,0.0,-999.0,71,0.00,,,0.00,Wunderground v.1.15,2013-04-06 04:02:00,
2013-04-06 00:04:00,31.4,23.1,30.17,NNE,22,0.0,-999.0,71,0.00,,,0.00,Wunderground v.1.15,2013-04-06 04:04:00,
2013-04-06 00:09:00,31.0,23.0,30.16,NNE,22,0.0,-999.0,72,0.00,,,0.00,Wunderground v.1.15,2013-04-06 04:09:00,
2013-04-06 00:12:00,30.8,22.8,30.16,NNE,22,0.0,-999.0,72,0.00,,,0.00,Wunderground v.1.15,2013-04-06 04:12:00,
2013-04-06 00:17:00,30.4,22.4,30.16,NNE,22,0.0,-999.0,72,0.00,,,0.00,Wunderground v.1.15,2013-04-06 04:17:00,
2013-04-06 00:22:00,30.3,22.7,30.17,NNE,22,0.0,-999.0,73,0.00,,,0.00,Wunderground v.1.15,2013-04-06 04:22:00,
2013-04-06 00:27:00,30.1,22.5,30.17,NNE,22,0.0,-999.0,73,0.00,,,0.00,Wunderground v.1.15,2013-04-06 04:27:00,
2013-04-06 00:33:00,30.2,22.9,30.17,NNE,22,0.0,-999.0,74,0.00,,,0.00,Wunderground v.1.15,2013-04-06 04:33:00,
2013-04-06 00:38:00,30.3,22.7,30.17,SW,234,0.0,-999.0,73,0.00,,,0.00,Wunderground v.1.15,2013-04-06 04:38:00,
2013-04-06 00:44:00,30.5,22.5,30.17,NE,51,0.0,-999.0,72,0.00,,,0.00,Wunderground v.1.15,2013-04-06 04:44:00,
2013-04-06 00:49:00,30.5,22.2,30.17,NE,51,0.0,-999.0,71,0.00,,,0.00,Wunderground v.1.15,2013-04-06 04:49:00,
2013-04-06 00:54:00,30.5,21.9,30.18,NE,51,0.0,-999.0,70,0.00,,,0.00,Wunderground v.1.15,2013-04-06 04:54:00,
2013-04-06 01:00:00,30.2,21.6,30.18,NE,51,0.0,-999.0,70,0.00,,,0.00,Wunderground v.1.15,2013-04-06 05:00:00,
2013-04-06 01:06:00,29.9,21.3,30.18,NE,51,0.0,-999.0,70,0.00,,,0.00,Wunderground v.1.15,2013-04-06 05:06:00,
2013-04-06 01:11:00,29.7,21.4,30.18,NE,51,0.0,-999.0,71,0.00,,,0.00,Wunderground v.1.15,2013-04-06 05:11:00,
2013-04-06 01:17:00,29.6,21.0,30.18,NE,51,0.0,-999.0,70,0.00,,,0.00,Wunderground v.1.15,2013-04-06 05:17:00,
2013-04-06 01:22:00,29.4,21.2,30.18,NE,51,0.0,-999.0,71,0.00,,,0.00,Wunderground v.1.15,2013-04-06 05:22:00,
2013-04-06 01:29:00,29.2,21.0,30.19,NE,51,0.0,-999.0,71,0.00,,,0.00,Wunderground v.1.15,2013-04-06 05:29:00,
2013-04-06 01:34:00,29.1,21.2,30.19,NE,51,0.0,-999.0,72,0.00,,,0.00,Wunderground v.1.15,2013-04-06 05:34:00,
2013-04-06 01:39:00,29.0,21.1,30.19,NE,51,0.0,-999.0,72,0.00,,,0.00,Wunderground v.1.15,2013-04-06 05:39:00,
2013-04-06 01:44:00,28.9,21.0,30.19,NE,51,0.0,-999.0,72,0.00,,,0.00,Wunderground v.1.15,2013-04-06 05:44:00,
2013-04-06 01:49:00,28.7,20.8,30.18,NE,51,0.0,-999.0,72,0.00,,,0.00,Wunderground v.1.15,2013-04-06 05:49:00,
2013-04-06 01:54:00,28.5,20.3,30.18,NE,51,0.0,-999.0,71,0.00,,,0.00,Wunderground v.1.15,2013-04-06 05:54:00,
2013-04-06 01:59:00,28.3,20.1,30.18,NE,51,0.0,-999.0,71,0.00,,,0.00,Wunderground v.1.15,2013-04-06 05:59:00,
2013-04-06 02:05:00,28.1,19.6,30.18,NE,51,0.0,-999.0,70,0.00,,,0.00,Wunderground v.1.15,2013-04-06 06:05:00,
2013-04-06 02:10:00,27.9,19.4,30.18,NE,51,0.0,-999.0,70,0.00,,,0.00,Wunderground v.1.15,2013-04-06 06:10:00,
2013-04-06 02:16:00,27.7,19.5,30.18,NE,51,0.0,-999.0,71,0.00,,,0.00,Wunderground v.1.15,2013-04-06 06:16:00,
2013-04-06 02:21:00,27.4,19.6,30.17,NE,51,0.0,-999.0,72,0.00,,,0.00,Wunderground v.1.15,2013-04-06 06:21:00,
2013-04-06 02:26:00,27.1,19.3,30.17,NE,51,0.0,-999.0,72,0.00,,,0.00,Wunderground v.1.15,2013-04-06 06:26:00,
2013-04-06 02:32:00,26.8,19.3,30.17,NE,51,0.0,-999.0,73,0.00,,,0.00,Wunderground v.1.15,2013-04-06 06:32:00,
2013-04-06 02:37:00,26.6,20.1,30.17,NE,51,0.0,-999.0,76,0.00,,,0.00,Wunderground v.1.15,2013-04-06 06:37:00,
2013-04-06 02:43:00,26.4,20.2,30.17,NE,51,0.0,-999.0,77,0.00,,,0.00,Wunderground v.1.15,2013-04-06 06:43:00,
2013-04-06 02:48:00,26.1,19.9,30.17,NE,51,0.0,-999.0,77,0.00,,,0.00,Wunderground v.1.15,2013-04-06 06:48:00,
2013-04-06 02:54:00,25.8,19.9,30.17,NE,51,0.0,-999.0,78,0.00,,,0.00,Wunderground v.1.15,2013-04-06 06:54:00,
2013-04-06 02:59:00,25.7,20.1,30.18,NE,51,0.0,-999.0,79,0.00,,,0.00,Wunderground v.1.15,2013-04-06 06:59:00,
2013-04-06 03:05:00,25.4,19.8,30.18,NE,51,0.0,-999.0,79,0.00,,,0.00,Wunderground v.1.15,2013-04-06 07:05:00,
2013-04-06 03:10:00,25.2,19.6,30.17,NE,51,0.0,-999.0,79,0.00,,,0.00,Wunderground v.1.15,2013-04-06 07:10:00,
2013-04-06 03:16:00,25.0,19.4,30.17,NE,51,0.0,-999.0,79,0.00,,,0.00,Wunderground v.1.15,2013-04-06 07:16:00,
2013-04-06 03:21:00,24.8,19.5,30.17,NE,51,0.0,-999.0,80,0.00,,,0.00,Wunderground v.1.15,2013-04-06 07:21:00,
2013-04-06 03:27:00,24.6,19.3,30.17,NE,51,0.0,-999.0,80,0.00,,,0.00,Wunderground v.1.15,2013-04-06 07:27:00,
2013-04-06 03:33:00,24.5,19.2,30.17,NE,51,0.0,-999.0,80,0.00,,,0.00,Wunderground v.1.15,2013-04-06 07:33:00,
2013-04-06 03:39:00,24.4,19.1,30.18,NE,51,0.0,-999.0,80,0.00,,,0.00,Wunderground v.1.15,2013-04-06 07:39:00,
2013-04-06 03:44:00,24.3,19.3,30.18,NE,51,0.0,-999.0,81,0.00,,,0.00,Wunderground v.1.15,2013-04-06 07:44:00,
2013-04-06 03:49:00,24.2,19.2,30.18,NE,51,0.0,-999.0,81,0.00,,,0.00,Wunderground v.1.15,2013-04-06 07:49:00,
2013-04-06 03:54:00,24.0,19.0,30.18,NE,51,0.0,-999.0,81,0.00,,,0.00,Wunderground v.1.15,2013-04-06 07:54:00,
2013-04-06 03:59:00,23.8,18.8,30.18,NE,51,0.0,-999.0,81,0.00,,,0.00,Wunderground v.1.15,2013-04-06 07:59:00,
2013-04-06 04:04:00,23.7,18.7,30.18,NE,51,0.0,-999.0,81,0.00,,,0.00,Wunderground v.1.15,2013-04-06 08:04:00,
2013-04-06 04:10:00,23.8,18.8,30.18,NE,51,0.0,-999.0,81,0.00,,,0.00,Wunderground v.1.15,2013-04-06 08:10:00,
2013-04-06 04:15:00,23.7,18.7,30.17,NE,51,0.0,-999.0,81,0.00,,,0.00,Wunderground v.1.15,2013-04-06 08:15:00,
2013-04-06 04:21:00,23.6,18.9,30.18,NE,51,0.0,-999.0,82,0.00,,,0.00,Wunderground v.1.15,2013-04-06 08:21:00,
2013-04-06 04:27:00,23.8,19.1,30.18,NE,51,0.0,-999.0,82,0.00,,,0.00,Wunderground v.1.15,2013-04-06 08:27:00,
2013-04-06 04:32:00,23.8,19.1,30.18,NE,51,0.0,-999.0,82,0.00,,,0.00,Wunderground v.1.15,2013-04-06 08:32:00,
2013-04-06 04:38:00,23.8,19.1,30.18,NE,51,0.0,-999.0,82,0.00,,,0.00,Wunderground v.1.15,2013-04-06 08:38:00,
2013-04-06 04:44:00,23.7,19.0,30.18,NE,51,0.0,-999.0,82,0.00,,,0.00,Wunderground v.1.15,2013-04-06 08:44:00,
2013-04-06 04:49:00,23.6,18.9,30.18,NE,51,0.0,-999.0,82,0.00,,,0.00,Wunderground v.1.15,2013-04-06 08:49:00,
2013-04-06 04:54:00,23.4,18.7,30.19,NE,51,0.0,-999.0,82,0.00,,,0.00,Wunderground v.1.15,2013-04-06 08:54:00,
2013-04-06 05:00:00,23.2,18.5,30.19,NE,51,0.0,-999.0,82,0.00,,,0.00,Wunderground v.1.15,2013-04-06 09:00:00,
2013-04-06 05:05:00,23.1,18.4,30.19,NE,51,0.0,-999.0,82,0.00,,,0.00,Wunderground v.1.15,2013-04-06 09:05:00,
2013-04-06 05:11:00,22.9,18.2,30.19,NE,51,0.0,-999.0,82,0.00,,,0.00,Wunderground v.1.15,2013-04-06 09:11:00,
2013-04-06 05:17:00,22.7,18.3,30.19,NE,51,0.0,-999.0,83,0.00,,,0.00,Wunderground v.1.15,2013-04-06 09:17:00,
2013-04-06 05:22:00,22.6,18.2,30.19,NE,51,0.0,-999.0,83,0.00,,,0.00,Wunderground v.1.15,2013-04-06 09:22:00,
2013-04-06 05:27:00,22.6,18.2,30.19,NE,51,0.0,-999.0,83,0.00,,,0.00,Wunderground v.1.15,2013-04-06 09:27:00,
2013-04-06 05:32:00,22.5,18.1,30.19,NE,51,0.0,-999.0,83,0.00,,,0.00,Wunderground v.1.15,2013-04-06 09:32:00,
2013-04-06 05:38:00,22.4,18.0,30.19,NE,51,0.0,-999.0,83,0.00,,,0.00,Wunderground v.1.15,2013-04-06 09:38:00,
2013-04-06 05:44:00,22.3,17.9,30.19,NE,51,0.0,-999.0,83,0.00,,,0.00,Wunderground v.1.15,2013-04-06 09:44:00,
2013-04-06 05:49:00,22.3,18.2,30.19,NE,51,0.0,-999.0,84,0.00,,,0.00,Wunderground v.1.15,2013-04-06 09:49:00,
2013-04-06 05:55:00,22.6,18.5,30.20,NE,51,0.0,-999.0,84,0.00,,,0.00,Wunderground v.1.15,2013-04-06 09:55:00,
2013-04-06 06:01:00,22.9,19.1,30.20,NE,51,0.0,-999.0,85,0.00,,,0.00,Wunderground v.1.15,2013-04-06 10:01:00,
2013-04-06 06:05:00,23.3,19.5,30.20,NE,51,0.0,-999.0,85,0.00,,,0.00,Wunderground v.1.15,2013-04-06 10:05:00,
2013-04-06 06:11:00,23.6,19.8,30.20,NE,51,0.0,-999.0,85,0.00,,,0.00,Wunderground v.1.15,2013-04-06 10:11:00,
2013-04-06 06:16:00,24.1,20.2,30.20,NE,51,0.0,-999.0,85,0.00,,,0.00,Wunderground v.1.15,2013-04-06 10:16:00,
2013-04-06 06:22:00,24.5,20.6,30.21,NE,51,0.0,-999.0,85,0.00,,,0.00,Wunderground v.1.15,2013-04-06 10:22:00,
2013-04-06 06:29:00,24.9,21.3,30.21,NE,51,0.0,-999.0,86,0.00,,,0.00,Wunderground v.1.15,2013-04-06 10:29:00,
2013-04-06 06:34:00,25.2,21.3,30.21,NE,51,0.0,-999.0,85,0.00,,,0.00,Wunderground v.1.15,2013-04-06 10:34:00,
2013-04-06 06:40:00,25.4,21.5,30.21,NE,51,0.0,-999.0,85,0.00,,,0.00,Wunderground v.1.15,2013-04-06 10:40:00,
2013-04-06 06:46:00,25.7,22.1,30.21,NE,51,0.0,-999.0,86,0.00,,,0.00,Wunderground v.1.15,2013-04-06 10:46:00,
2013-04-06 06:51:00,26.0,22.1,30.21,NE,51,0.0,-999.0,85,0.00,,,0.00,Wunderground v.1.15,2013-04-06 10:51:00,
2013-04-06 06:56:00,26.2,22.3,30.21,NE,51,0.0,-999.0,85,0.00,,,0.00,Wunderground v.1.15,2013-04-06 10:56:00,
2013-04-06 07:02:00,26.3,22.4,30.21,NE,51,0.0,-999.0,85,0.00,,,0.00,Wunderground v.1.15,2013-04-06 11:02:00,
2013-04-06 07:07:00,26.4,22.5,30.22,NE,51,0.0,-999.0,85,0.00,,,0.00,Wunderground v.1.15,2013-04-06 11:07:00,
2013-04-06 07:14:00,26.6,22.4,30.22,NE,51,0.0,-999.0,84,0.00,,,0.00,Wunderground v.1.15,2013-04-06 11:14:00,
2013-04-06 07:21:00,26.9,22.4,30.22,NE,51,0.0,-999.0,83,0.00,,,0.00,Wunderground v.1.15,2013-04-06 11:21:00,
2013-04-06 07:27:00,27.2,22.7,30.22,NE,51,0.0,-999.0,83,0.00,,,0.00,Wunderground v.1.15,2013-04-06 11:27:00,
2013-04-06 07:33:00,27.5,22.7,30.23,NE,51,0.0,-999.0,82,0.00,,,0.00,Wunderground v.1.15,2013-04-06 11:33:00,
2013-04-06 07:37:00,27.6,22.8,30.22,NE,51,0.0,-999.0,82,0.00,,,0.00,Wunderground v.1.15,2013-04-06 11:37:00,
2013-04-06 07:43:00,27.9,23.1,30.23,ESE,113,0.0,-999.0,82,0.00,,,0.00,Wunderground v.1.15,2013-04-06 11:43:00,
2013-04-06 07:48:00,28.2,23.1,30.23,ESE,113,0.0,-999.0,81,0.00,,,0.00,Wunderground v.1.15,2013-04-06 11:48:00,
2013-04-06 07:53:00,28.5,22.8,30.23,ESE,113,0.0,-999.0,79,0.00,,,0.00,Wunderground v.1.15,2013-04-06 11:53:00,
2013-04-06 07:59:00,28.8,22.8,30.23,ESE,113,0.0,-999.0,78,0.00,,,0.00,Wunderground v.1.15,2013-04-06 11:59:00,
2013-04-06 08:04:00,29.0,23.0,30.23,ESE,113,0.0,-999.0,78,0.00,,,0.00,Wunderground v.1.15,2013-04-06 12:04:00,
2013-04-06 08:09:00,29.2,22.9,30.23,ESE,113,0.0,-999.0,77,0.00,,,0.00,Wunderground v.1.15,2013-04-06 12:09:00,
2013-04-06 08:14:00,29.4,22.8,30.23,ESE,113,0.0,-999.0,76,0.00,,,0.00,Wunderground v.1.15,2013-04-06 12:14:00,
2013-04-06 08:20:00,29.9,22.0,30.23,SSE,162,0.0,-999.0,72,0.00,,,0.00,Wunderground v.1.15,2013-04-06 12:20:00,
2013-04-06 08:25:00,31.1,20.0,30.23,South,175,1.0,-999.0,63,0.00,,,0.00,Wunderground v.1.15,2013-04-06 12:25:00,
2013-04-06 08:32:00,32.3,20.0,30.24,South,175,1.0,-999.0,60,0.00,,,0.00,Wunderground v.1.15,2013-04-06 12:32:00,
2013-04-06 08:37:00,32.9,18.9,30.23,SSE,164,2.0,-999.0,56,0.00,,,0.00,Wunderground v.1.15,2013-04-06 12:37:00,
2013-04-06 08:42:00,33.4,19.4,30.24,ESE,114,2.0,-999.0,56,0.00,,,0.00,Wunderground v.1.15,2013-04-06 12:42:00,
2013-04-06 08:47:00,34.0,18.2,30.23,SE,127,0.0,-999.0,52,0.00,,,0.00,Wunderground v.1.15,2013-04-06 12:47:00,
2013-04-06 08:53:00,34.4,17.7,30.23,SSE,151,1.0,-999.0,50,0.00,,,0.00,Wunderground v.1.15,2013-04-06 12:53:00,
2013-04-06 08:59:00,34.6,17.8,30.24,SSE,147,2.0,-999.0,50,0.00,,,0.00,Wunderground v.1.15,2013-04-06 12:59:00,
2013-04-06 09:04:00,34.7,17.5,30.24,South,184,2.0,-999.0,49,0.00,,,0.00,Wunderground v.1.15,2013-04-06 13:04:00,
2013-04-06 09:09:00,34.9,18.1,30.24,SSE,148,3.0,-999.0,50,0.00,,,0.00,Wunderground v.1.15,2013-04-06 13:09:00,
2013-04-06 09:15:00,35.5,17.7,30.24,SSE,168,4.0,-999.0,48,0.00,,,0.00,Wunderground v.1.15,2013-04-06 13:15:00,
2013-04-06 09:20:00,35.9,16.6,30.24,SSE,167,5.0,-999.0,45,0.00,,,0.00,Wunderground v.1.15,2013-04-06 13:20:00,
2013-04-06 09:25:00,36.4,17.1,30.24,ESE,106,5.0,-999.0,45,0.00,,,0.00,Wunderground v.1.15,2013-04-06 13:25:00,
2013-04-06 09:31:00,37.0,17.1,30.24,SSE,150,5.0,-999.0,44,0.00,,,0.00,Wunderground v.1.15,2013-04-06 13:31:00,
2013-04-06 09:36:00,37.5,17.0,30.23,East,97,4.0,-999.0,43,0.00,,,0.00,Wunderground v.1.15,2013-04-06 13:36:00,
2013-04-06 09:41:00,38.1,17.5,30.23,SSE,168,3.0,-999.0,43,0.00,,,0.00,Wunderground v.1.15,2013-04-06 13:41:00,
2013-04-06 09:47:00,38.0,18.0,30.23,South,176,3.0,-999.0,44,0.00,,,0.00,Wunderground v.1.15,2013-04-06 13:47:00,
2013-04-06 09:53:00,38.4,20.4,30.23,South,191,5.0,-999.0,48,0.00,,,0.00,Wunderground v.1.15,2013-04-06 13:53:00,
2013-04-06 09:58:00,38.5,18.4,30.23,SSE,163,6.0,-999.0,44,0.00,,,0.00,Wunderground v.1.15,2013-04-06 13:58:00,
2013-04-06 10:04:00,38.2,18.2,30.23,South,182,5.0,-999.0,44,0.00,,,0.00,Wunderground v.1.15,2013-04-06 14:04:00,
2013-04-06 10:09:00,38.1,18.6,30.23,South,188,4.0,-999.0,45,0.00,,,0.00,Wunderground v.1.15,2013-04-06 14:09:00,
2013-04-06 10:14:00,38.3,19.3,30.23,SSE,161,5.0,-999.0,46,0.00,,,0.00,Wunderground v.1.15,2013-04-06 14:14:00,
2013-04-06 10:19:00,38.6,18.0,30.23,South,188,6.0,-999.0,43,0.00,,,0.00,Wunderground v.1.15,2013-04-06 14:19:00,
2013-04-06 10:25:00,38.9,17.7,30.23,SSE,159,6.0,-999.0,42,0.00,,,0.00,Wunderground v.1.15,2013-04-06 14:25:00,
2013-04-06 10:30:00,39.5,19.4,30.24,South,186,5.0,-999.0,44,0.00,,,0.00,Wunderground v.1.15,2013-04-06 14:30:00,
2013-04-06 10:36:00,40.4,20.2,30.24,South,182,4.0,-999.0,44,0.00,,,0.00,Wunderground v.1.15,2013-04-06 14:36:00,
2013-04-06 10:42:00,40.9,19.5,30.23,SSE,163,5.0,-999.0,42,0.00,,,0.00,Wunderground v.1.15,2013-04-06 14:42:00,
2013-04-06 10:47:00,41.1,20.3,30.23,SSW,196,6.0,-999.0,43,0.00,,,0.00,Wunderground v.1.15,2013-04-06 14:47:00,
2013-04-06 10:52:00,41.2,18.7,30.23,SSE,155,5.0,-999.0,40,0.00,,,0.00,Wunderground v.1.15,2013-04-06 14:52:00,
2013-04-06 10:59:00,41.6,20.2,30.23,SSW,205,4.0,-999.0,42,0.00,,,0.00,Wunderground v.1.15,2013-04-06 14:59:00,
2013-04-06 11:05:00,42.0,19.4,30.23,South,178,6.0,-999.0,40,0.00,,,0.00,Wunderground v.1.15,2013-04-06 15:05:00,
2013-04-06 11:10:00,42.1,20.1,30.22,SSW,192,5.0,-999.0,41,0.00,,,0.00,Wunderground v.1.15,2013-04-06 15:10:00,
2013-04-06 11:16:00,42.7,21.7,30.22,SE,144,4.0,-999.0,43,0.00,,,0.00,Wunderground v.1.15,2013-04-06 15:16:00,
2013-04-06 11:20:00,43.3,20.6,30.22,South,179,5.0,-999.0,40,0.00,,,0.00,Wunderground v.1.15,2013-04-06 15:20:00,
2013-04-06 11:26:00,43.5,20.2,30.22,SSE,161,5.0,-999.0,39,0.00,,,0.00,Wunderground v.1.15,2013-04-06 15:26:00,
2013-04-06 11:31:00,44.2,22.0,30.22,SSE,167,3.0,-999.0,41,0.00,,,0.00,Wunderground v.1.15,2013-04-06 15:31:00,
2013-04-06 11:36:00,45.2,20.4,30.22,SSW,198,3.0,-999.0,37,0.00,,,0.00,Wunderground v.1.15,2013-04-06 15:36:00,
2013-04-06 11:41:00,44.9,20.2,30.21,South,169,5.0,-999.0,37,0.00,,,0.00,Wunderground v.1.15,2013-04-06 15:41:00,
2013-04-06 11:48:00,45.1,21.0,30.21,SSE,165,4.0,-999.0,38,0.00,,,0.00,Wunderground v.1.15,2013-04-06 15:48:00,
2013-04-06 11:54:00,45.7,20.2,30.21,South,190,4.0,-999.0,36,0.00,,,0.00,Wunderground v.1.15,2013-04-06 15:54:00,
2013-04-06 11:59:00,46.0,21.8,30.21,South,179,7.0,-999.0,38,0.00,,,0.00,Wunderground v.1.15,2013-04-06 15:59:00,
2013-04-06 12:05:00,45.7,20.9,30.21,SSW,211,8.0,-999.0,37,0.00,,,0.00,Wunderground v.1.15,2013-04-06 16:05:00,
2013-04-06 12:11:00,45.7,20.2,30.21,SSE,166,6.0,-999.0,36,0.00,,,0.00,Wunderground v.1.15,2013-04-06 16:11:00,
2013-04-06 12:17:00,46.6,21.7,30.20,SW,216,5.0,-999.0,37,0.00,,,0.00,Wunderground v.1.15,2013-04-06 16:17:00,
2013-04-06 12:22:00,47.4,21.1,30.20,South,183,7.0,-999.0,35,0.00,,,0.00,Wunderground v.1.15,2013-04-06 16:22:00,
2013-04-06 12:27:00,47.6,20.6,30.19,South,180,7.0,-999.0,34,0.00,,,0.00,Wunderground v.1.15,2013-04-06 16:27:00,
2013-04-06 12:33:00,47.8,21.4,30.19,SSW,196,7.0,-999.0,35,0.00,,,0.00,Wunderground v.1.15,2013-04-06 16:33:00,
2013-04-06 12:39:00,47.7,20.0,30.19,East,96,7.0,-999.0,33,0.00,,,0.00,Wunderground v.1.15,2013-04-06 16:39:00,
2013-04-06 12:45:00,48.5,20.7,30.19,SSW,200,5.0,-999.0,33,0.00,,,0.00,Wunderground v.1.15,2013-04-06 16:45:00,
2013-04-06 12:50:00,48.3,19.8,30.18,SSW,205,3.0,-999.0,32,0.00,,,0.00,Wunderground v.1.15,2013-04-06 16:50:00,
2013-04-06 12:56:00,49.0,21.8,30.18,SSW,207,3.0,-999.0,34,0.00,,,0.00,Wunderground v.1.15,2013-04-06 16:56:00,
2013-04-06 13:01:00,48.9,20.3,30.18,SSW,192,4.0,-999.0,32,0.00,,,0.00,Wunderground v.1.15,2013-04-06 17:01:00,
2013-04-06 13:07:00,49.3,20.6,30.17,SW,217,5.0,-999.0,32,0.00,,,0.00,Wunderground v.1.15,2013-04-06 17:07:00,
2013-04-06 13:13:00,49.8,21.1,30.17,SSE,161,5.0,-999.0,32,0.00,,,0.00,Wunderground v.1.15,2013-04-06 17:13:00,
2013-04-06 13:19:00,50.2,19.9,30.16,South,173,4.0,-999.0,30,0.00,,,0.00,Wunderground v.1.15,2013-04-06 17:19:00,
2013-04-06 13:24:00,50.7,21.1,30.16,SSE,155,6.0,-999.0,31,0.00,,,0.00,Wunderground v.1.15,2013-04-06 17:24:00,
2013-04-06 13:30:00,51.2,20.8,30.16,SSE,150,5.0,-999.0,30,0.00,,,0.00,Wunderground v.1.15,2013-04-06 17:30:00,
2013-04-06 13:35:00,51.8,21.3,30.15,SSE,153,5.0,-999.0,30,0.00,,,0.00,Wunderground v.1.15,2013-04-06 17:35:00,
2013-04-06 13:40:00,52.2,20.0,30.15,SSE,153,5.0,-999.0,28,0.00,,,0.00,Wunderground v.1.15,2013-04-06 17:40:00,
2013-04-06 13:46:00,52.5,18.6,30.14,South,178,5.0,-999.0,26,0.00,,,0.00,Wunderground v.1.15,2013-04-06 17:46:00,
2013-04-06 13:52:00,52.4,20.2,30.14,South,180,8.0,-999.0,28,0.00,,,0.00,Wunderground v.1.15,2013-04-06 17:52:00,
2013-04-06 13:57:00,53.0,19.9,30.13,SSE,151,6.0,-999.0,27,0.00,,,0.00,Wunderground v.1.15,2013-04-06 17:57:00,
2013-04-06 14:02:00,53.7,20.5,30.13,East,81,5.0,-999.0,27,0.00,,,0.00,Wunderground v.1.15,2013-04-06 18:02:00,
2013-04-06 14:08:00,53.7,22.2,30.12,SSW,196,3.0,-999.0,29,0.00,,,0.00,Wunderground v.1.15,2013-04-06 18:08:00,
2013-04-06 14:14:00,54.1,19.0,30.12,SW,221,5.0,-999.0,25,0.00,,,0.00,Wunderground v.1.15,2013-04-06 18:14:00,
2013-04-06 14:19:00,54.1,20.8,30.12,SSE,150,6.0,-999.0,27,0.00,,,0.00,Wunderground v.1.15,2013-04-06 18:19:00,
2013-04-06 14:24:00,54.4,19.3,30.12,SE,145,7.0,-999.0,25,0.00,,,0.00,Wunderground v.1.15,2013-04-06 18:24:00,
2013-04-06 14:29:00,54.4,19.3,30.12,SSE,161,5.0,-999.0,25,0.00,,,0.00,Wunderground v.1.15,2013-04-06 18:29:00,
2013-04-06 14:35:00,55.0,19.8,30.12,SW,225,5.0,-999.0,25,0.00,,,0.00,Wunderground v.1.15,2013-04-06 18:35:00,
2013-04-06 14:40:00,55.1,18.9,30.12,SW,228,6.0,-999.0,24,0.00,,,0.00,Wunderground v.1.15,2013-04-06 18:40:00,
2013-04-06 14:46:00,55.3,17.0,30.12,SSE,162,6.0,-999.0,22,0.00,,,0.00,Wunderground v.1.15,2013-04-06 18:46:00,
2013-04-06 14:51:00,55.2,17.0,30.11,SSW,197,5.0,-999.0,22,0.00,,,0.00,Wunderground v.1.15,2013-04-06 18:51:00,
2013-04-06 14:57:00,55.5,19.2,30.10,East,79,4.0,-999.0,24,0.00,,,0.00,Wunderground v.1.15,2013-04-06 18:57:00,
2013-04-06 15:03:00,56.4,20.0,30.10,South,180,5.0,-999.0,24,0.00,,,0.00,Wunderground v.1.15,2013-04-06 19:03:00,
2013-04-06 15:10:00,56.9,19.4,30.10,SE,146,5.0,-999.0,23,0.00,,,0.00,Wunderground v.1.15,2013-04-06 19:10:00,
2013-04-06 15:15:00,56.8,18.3,30.10,SSE,167,4.0,-999.0,22,0.00,,,0.00,Wunderground v.1.15,2013-04-06 19:15:00,
2013-04-06 15:20:00,56.7,17.1,30.09,SSE,160,7.0,-999.0,21,0.00,,,0.00,Wunderground v.1.15,2013-04-06 19:20:00,
2013-04-06 15:26:00,56.8,18.3,30.09,South,183,6.0,-999.0,22,0.00,,,0.00,Wunderground v.1.15,2013-04-06 19:26:00,
2013-04-06 15:31:00,57.0,19.5,30.08,SSW,200,3.0,-999.0,23,0.00,,,0.00,Wunderground v.1.15,2013-04-06 19:31:00,
2013-04-06 15:37:00,57.5,15.5,30.09,SSE,160,5.0,-999.0,19,0.00,,,0.00,Wunderground v.1.15,2013-04-06 19:37:00,
2013-04-06 15:43:00,57.4,18.8,30.08,SSW,209,6.0,-999.0,22,0.00,,,0.00,Wunderground v.1.15,2013-04-06 19:43:00,
2013-04-06 15:49:00,57.9,18.1,30.08,SSW,193,6.0,-999.0,21,0.00,,,0.00,Wunderground v.1.15,2013-04-06 19:49:00,
2013-04-06 15:54:00,58.3,18.5,30.08,SW,225,7.0,-999.0,21,0.00,,,0.00,Wunderground v.1.15,2013-04-06 19:54:00,
2013-04-06 16:00:00,58.5,17.5,30.07,SW,232,6.0,-999.0,20,0.00,,,0.00,Wunderground v.1.15,2013-04-06 20:00:00,
2013-04-06 16:06:00,59.1,19.1,30.07,SSW,200,5.0,-999.0,21,0.00,,,0.00,Wunderground v.1.15,2013-04-06 20:06:00,
2013-04-06 16:11:00,59.1,16.8,30.07,SSW,196,6.0,-999.0,19,0.00,,,0.00,Wunderground v.1.15,2013-04-06 20:11:00,
2013-04-06 16:16:00,58.9,15.4,30.07,SSE,161,7.0,-999.0,18,0.00,,,0.00,Wunderground v.1.15,2013-04-06 20:16:00,
2013-04-06 16:22:00,58.7,15.2,30.06,SW,225,8.0,-999.0,18,0.00,,,0.00,Wunderground v.1.15,2013-04-06 20:22:00,
2013-04-06 16:27:00,58.6,16.4,30.06,SSW,213,8.0,-999.0,19,0.00,,,0.00,Wunderground v.1.15,2013-04-06 20:27:00,
2013-04-06 16:33:00,58.6,16.4,30.06,SSW,204,7.0,-999.0,19,0.00,,,0.00,Wunderground v.1.15,2013-04-06 20:33:00,
2013-04-06 16:39:00,58.9,16.7,30.06,South,172,8.0,-999.0,19,0.00,,,0.00,Wunderground v.1.15,2013-04-06 20:39:00,
2013-04-06 16:44:00,58.7,16.5,30.06,SSW,192,10.0,-999.0,19,0.00,,,0.00,Wunderground v.1.15,2013-04-06 20:44:00,
2013-04-06 16:50:00,58.9,16.7,30.05,South,178,8.0,-999.0,19,0.00,,,0.00,Wunderground v.1.15,2013-04-06 20:50:00,
2013-04-06 16:55:00,58.9,16.7,30.05,South,169,7.0,-999.0,19,0.00,,,0.00,Wunderground v.1.15,2013-04-06 20:55:00,
2013-04-06 17:01:00,59.1,18.0,30.05,SSW,192,7.0,-999.0,20,0.00,,,0.00,Wunderground v.1.15,2013-04-06 21:01:00,
2013-04-06 17:06:00,59.4,17.1,30.04,SSE,163,6.0,-999.0,19,0.00,,,0.00,Wunderground v.1.15,2013-04-06 21:06:00,
2013-04-06 17:11:00,59.5,17.1,30.04,South,171,7.0,-999.0,19,0.00,,,0.00,Wunderground v.1.15,2013-04-06 21:11:00,
2013-04-06 17:17:00,59.6,18.4,30.05,SSE,167,7.0,-999.0,20,0.00,,,0.00,Wunderground v.1.15,2013-04-06 21:17:00,
2013-04-06 17:21:00,59.7,17.3,30.04,WSW,237,6.0,-999.0,19,0.00,,,0.00,Wunderground v.1.15,2013-04-06 21:21:00,
2013-04-06 17:27:00,59.6,17.2,30.04,South,188,6.0,-999.0,19,0.00,,,0.00,Wunderground v.1.15,2013-04-06 21:27:00,
2013-04-06 17:32:00,59.6,17.2,30.04,SSE,155,7.0,-999.0,19,0.00,,,0.00,Wunderground v.1.15,2013-04-06 21:32:00,
2013-04-06 17:38:00,59.5,19.5,30.04,SSW,199,8.0,-999.0,21,0.00,,,0.00,Wunderground v.1.15,2013-04-06 21:38:00,
2013-04-06 17:44:00,59.7,18.5,30.04,SSE,166,7.0,-999.0,20,0.00,,,0.00,Wunderground v.1.15,2013-04-06 21:44:00,
2013-04-06 17:49:00,59.3,17.0,30.04,SW,214,8.0,-999.0,19,0.00,,,0.00,Wunderground v.1.15,2013-04-06 21:49:00,
2013-04-06 17:54:00,59.1,19.1,30.04,South,180,7.0,-999.0,21,0.00,,,0.00,Wunderground v.1.15,2013-04-06 21:54:00,
2013-04-06 18:00:00,58.7,16.5,30.03,South,170,6.0,-999.0,19,0.00,,,0.00,Wunderground v.1.15,2013-04-06 22:00:00,
2013-04-06 18:07:00,58.3,16.2,30.03,South,184,7.0,-999.0,19,0.00,,,0.00,Wunderground v.1.15,2013-04-06 22:07:00,
2013-04-06 18:12:00,58.2,16.1,30.03,SSW,206,7.0,-999.0,19,0.00,,,0.00,Wunderground v.1.15,2013-04-06 22:12:00,
2013-04-06 18:17:00,58.1,17.2,30.03,SSW,207,7.0,-999.0,20,0.00,,,0.00,Wunderground v.1.15,2013-04-06 22:17:00,
2013-04-06 18:22:00,57.9,17.0,30.02,South,182,6.0,-999.0,20,0.00,,,0.00,Wunderground v.1.15,2013-04-06 22:22:00,
2013-04-06 18:28:00,57.8,15.7,30.02,South,172,6.0,-999.0,19,0.00,,,0.00,Wunderground v.1.15,2013-04-06 22:28:00,
2013-04-06 18:33:00,57.8,16.9,30.02,SSE,157,7.0,-999.0,20,0.00,,,0.00,Wunderground v.1.15,2013-04-06 22:33:00,
2013-04-06 18:39:00,57.7,19.1,30.01,South,178,7.0,-999.0,22,0.00,,,0.00,Wunderground v.1.15,2013-04-06 22:39:00,
2013-04-06 18:45:00,57.6,16.8,30.01,SSE,165,7.0,-999.0,20,0.00,,,0.00,Wunderground v.1.15,2013-04-06 22:45:00,
2013-04-06 18:51:00,57.6,16.8,30.01,SSE,157,8.0,-999.0,20,0.00,,,0.00,Wunderground v.1.15,2013-04-06 22:51:00,
2013-04-06 18:56:00,57.6,15.6,30.01,South,169,8.0,-999.0,19,0.00,,,0.00,Wunderground v.1.15,2013-04-06 22:56:00,
2013-04-06 19:02:00,57.6,16.8,30.01,South,183,8.0,-999.0,20,0.00,,,0.00,Wunderground v.1.15,2013-04-06 23:02:00,
2013-04-06 19:07:00,57.5,17.8,30.01,SSE,167,7.0,-999.0,21,0.00,,,0.00,Wunderground v.1.15,2013-04-06 23:07:00,
2013-04-06 19:13:00,57.3,18.7,30.01,SSE,167,5.0,-999.0,22,0.00,,,0.00,Wunderground v.1.15,2013-04-06 23:13:00,
2013-04-06 19:19:00,57.0,18.5,30.01,South,171,4.0,-999.0,22,0.00,,,0.00,Wunderground v.1.15,2013-04-06 23:19:00,
2013-04-06 19:24:00,56.9,20.4,30.01,South,174,4.0,-999.0,24,0.00,,,0.00,Wunderground v.1.15,2013-04-06 23:24:00,
2013-04-06 19:30:00,56.7,20.3,30.01,South,174,4.0,-999.0,24,0.00,,,0.00,Wunderground v.1.15,2013-04-06 23:30:00,
2013-04-06 19:36:00,56.4,19.0,30.00,South,174,3.0,-999.0,23,0.00,,,0.00,Wunderground v.1.15,2013-04-06 23:36:00,
2013-04-06 19:41:00,56.2,19.8,30.00,South,171,4.0,-999.0,24,0.00,,,0.00,Wunderground v.1.15,2013-04-06 23:41:00,
2013-04-06 19:47:00,55.9,19.6,30.00,South,169,5.0,-999.0,24,0.00,,,0.00,Wunderground v.1.15,2013-04-06 23:47:00,
2013-04-06 19:53:00,55.7,17.4,29.99,SSE,166,5.0,-999.0,22,0.00,,,0.00,Wunderground v.1.15,2013-04-06 23:53:00,
2013-04-06 19:59:00,55.7,20.4,29.99,SSE,165,4.0,-999.0,25,0.00,,,0.00,Wunderground v.1.15,2013-04-06 23:59:00,
2013-04-06 20:04:00,55.4,19.2,29.99,SSE,165,4.0,-999.0,24,0.00,,,0.00,Wunderground v.1.15,2013-04-07 00:04:00,
2013-04-06 20:09:00,54.9,19.7,29.99,SSE,165,4.0,-999.0,25,0.00,,,0.00,Wunderground v.1.15,2013-04-07 00:09:00,
2013-04-06 20:15:00,54.3,19.2,29.99,South,173,4.0,-999.0,25,0.00,,,0.00,Wunderground v.1.15,2013-04-07 00:15:00,
2013-04-06 20:20:00,54.0,19.8,29.99,SSE,165,5.0,-999.0,26,0.00,,,0.00,Wunderground v.1.15,2013-04-07 00:20:00,
2013-04-06 20:27:00,54.3,18.2,29.99,SSE,167,5.0,-999.0,24,0.00,,,0.00,Wunderground v.1.15,2013-04-07 00:27:00,
2013-04-06 20:32:00,54.0,18.9,29.98,SSE,167,4.0,-999.0,25,0.00,,,0.00,Wunderground v.1.15,2013-04-07 00:32:00,
2013-04-06 20:38:00,53.4,20.2,29.98,SSE,164,4.0,-999.0,27,0.00,,,0.00,Wunderground v.1.15,2013-04-07 00:38:00,
2013-04-06 20:44:00,52.4,20.2,29.98,SSE,164,4.0,-999.0,28,0.00,,,0.00,Wunderground v.1.15,2013-04-07 00:44:00,
2013-04-06 20:49:00,51.7,19.6,29.98,SSE,164,3.0,-999.0,28,0.00,,,0.00,Wunderground v.1.15,2013-04-07 00:49:00,
2013-04-06 20:54:00,51.8,19.7,29.97,SSE,165,3.0,-999.0,28,0.00,,,0.00,Wunderground v.1.15,2013-04-07 00:54:00,
2013-04-06 21:00:00,52.4,18.5,29.97,SSE,166,3.0,-999.0,26,0.00,,,0.00,Wunderground v.1.15,2013-04-07 01:00:00,
2013-04-06 21:05:00,52.7,18.7,29.97,SSE,166,2.0,-999.0,26,0.00,,,0.00,Wunderground v.1.15,2013-04-07 01:05:00,
2013-04-06 21:11:00,52.8,18.8,29.97,SSE,166,1.0,-999.0,26,0.00,,,0.00,Wunderground v.1.15,2013-04-07 01:11:00,
2013-04-06 21:16:00,53.0,19.0,29.97,SSE,166,1.0,-999.0,26,0.00,,,0.00,Wunderground v.1.15,2013-04-07 01:16:00,
2013-04-06 21:22:00,53.0,18.1,29.97,SSE,166,2.0,-999.0,25,0.00,,,0.00,Wunderground v.1.15,2013-04-07 01:22:00,
2013-04-06 21:27:00,52.8,20.5,29.96,SSE,166,1.0,-999.0,28,0.00,,,0.00,Wunderground v.1.15,2013-04-07 01:27:00,
2013-04-06 21:34:00,52.2,20.0,29.96,SSE,166,1.0,-999.0,28,0.00,,,0.00,Wunderground v.1.15,2013-04-07 01:34:00,
2013-04-06 21:39:00,51.8,20.5,29.96,SSE,166,1.0,-999.0,29,0.00,,,0.00,Wunderground v.1.15,2013-04-07 01:39:00,
2013-04-06 21:45:00,52.0,19.9,29.96,SSE,166,2.0,-999.0,28,0.00,,,0.00,Wunderground v.1.15,2013-04-07 01:45:00,
2013-04-06 21:50:00,51.9,20.6,29.96,SSE,166,2.0,-999.0,29,0.00,,,0.00,Wunderground v.1.15,2013-04-07 01:50:00,
2013-04-06 21:56:00,51.5,21.0,29.96,SSE,166,2.0,-999.0,30,0.00,,,0.00,Wunderground v.1.15,2013-04-07 01:56:00,
2013-04-06 22:02:00,51.4,19.3,29.96,SSE,166,1.0,-999.0,28,0.00,,,0.00,Wunderground v.1.15,2013-04-07 02:02:00,
2013-04-06 22:07:00,51.7,21.2,29.95,SSE,166,1.0,-999.0,30,0.00,,,0.00,Wunderground v.1.15,2013-04-07 02:07:00,
2013-04-06 22:14:00,51.9,21.4,29.95,SSE,166,2.0,-999.0,30,0.00,,,0.00,Wunderground v.1.15,2013-04-07 02:14:00,
2013-04-06 22:20:00,52.3,17.5,29.94,SSE,164,3.0,-999.0,25,0.00,,,0.00,Wunderground v.1.15,2013-04-07 02:20:00,
2013-04-06 22:26:00,52.8,18.8,29.94,South,170,4.0,-999.0,26,0.00,,,0.00,Wunderground v.1.15,2013-04-07 02:26:00,
2013-04-06 22:31:00,53.1,19.1,29.94,SSE,152,5.0,-999.0,26,0.00,,,0.00,Wunderground v.1.15,2013-04-07 02:31:00,
2013-04-06 22:37:00,53.2,18.2,29.94,SSE,167,6.0,-999.0,25,0.00,,,0.00,Wunderground v.1.15,2013-04-07 02:37:00,
2013-04-06 22:43:00,53.5,17.5,29.93,South,173,6.0,-999.0,24,0.00,,,0.00,Wunderground v.1.15,2013-04-07 02:43:00,
2013-04-06 22:48:00,53.4,19.3,29.93,South,172,6.0,-999.0,26,0.00,,,0.00,Wunderground v.1.15,2013-04-07 02:48:00,
2013-04-06 22:54:00,53.0,19.0,29.93,South,186,5.0,-999.0,26,0.00,,,0.00,Wunderground v.1.15,2013-04-07 02:54:00,
2013-04-06 23:00:00,52.4,21.0,29.93,South,173,5.0,-999.0,29,0.00,,,0.00,Wunderground v.1.15,2013-04-07 03:00:00,
2013-04-06 23:05:00,52.2,18.3,29.93,SSE,164,5.0,-999.0,26,0.00,,,0.00,Wunderground v.1.15,2013-04-07 03:05:00,
2013-04-06 23:11:00,53.0,18.1,29.92,SSE,167,6.0,-999.0,25,0.00,,,0.00,Wunderground v.1.15,2013-04-07 03:11:00,
2013-04-06 23:16:00,53.2,18.2,29.93,South,183,5.0,-999.0,25,0.00,,,0.00,Wunderground v.1.15,2013-04-07 03:16:00,
2013-04-06 23:21:00,53.0,18.1,29.92,SSE,164,4.0,-999.0,25,0.00,,,0.00,Wunderground v.1.15,2013-04-07 03:21:00,
2013-04-06 23:27:00,52.9,18.0,29.92,South,170,5.0,-999.0,25,0.00,,,0.00,Wunderground v.1.15,2013-04-07 03:27:00,
2013-04-06 23:32:00,52.8,18.8,29.92,South,171,5.0,-999.0,26,0.00,,,0.00,Wunderground v.1.15,2013-04-07 03:32:00,
2013-04-06 23:39:00,52.4,19.3,29.92,South,170,4.0,-999.0,27,0.00,,,0.00,Wunderground v.1.15,2013-04-07 03:39:00,
2013-04-06 23:44:00,51.9,18.0,29.91,South,175,4.0,-999.0,26,0.00,,,0.00,Wunderground v.1.15,2013-04-07 03:44:00,
2013-04-06 23:49:00,51.9,18.0,29.91,South,171,4.0,-999.0,26,0.00,,,0.00,Wunderground v.1.15,2013-04-07 03:49:00,
2013-04-06 23:54:00,52.0,18.1,29.90,SSE,164,5.0,-999.0,26,0.00,,,0.00,Wunderground v.1.15,2013-04-07 03:54:00,